KD8AZC-13 Weather Reports


time (UTC)temp
C
wind
direction
speed
KPH
gust
KPH
rain 1hr
cm
rain 24hr
cm
rain mn
cm
humidity
%
barometer
mb
20260510000027 16 251 0.0 4.8 0.00 0.00 0.00 66 1007.2
20260509234526 17 237 3.2 11.3 0.00 0.00 0.00 65 1007.1
20260509233028 17 270 3.2 14.5 0.00 0.00 0.00 62 1007.2
20260509231525 18 236 0.0 4.8 0.00 0.00 0.00 65 1007.2
20260509230024 18 199 1.6 4.8 0.00 0.00 0.00 63 1007.2
20260509224525 17 4 0.0 3.2 0.00 0.00 0.00 64 1007.3
20260509223026 18 354 0.0 3.2 0.00 0.00 0.00 65 1007.5
20260509221525 18 13 1.6 4.8 0.00 0.00 0.00 62 1007.5
20260509220026 18 57 0.0 4.8 0.00 0.00 0.00 61 1007.5
20260509214522 18 75 1.6 8.0 0.00 0.00 0.00 62 1007.5
20260509213018 18 53 1.6 8.0 0.00 0.00 0.00 64 1007.4
20260509211534 18 38 4.8 14.5 0.00 0.00 0.00 62 1007.4
20260509210016 18 68 9.7 16.1 0.00 0.00 0.00 60 1007.5
20260509204514 18 26 6.4 20.9 0.00 0.00 0.00 61 1007.4
20260509203032 17 44 6.4 17.7 0.00 0.00 0.00 61 1007.3
20260509201517 18 12 12.9 20.9 0.00 0.00 0.00 57 1007.3
20260509200012 18 22 8.0 16.1 0.00 0.00 0.00 54 1007.3
20260509194512 19 49 6.4 9.7 0.00 0.00 0.00 54 1007.3
20260509193012 19 59 1.6 4.8 0.00 0.00 0.00 51 1007.2
20260509191513 19 133 0.0 4.8 0.00 0.00 0.00 50 1007.3
20260509190004 19 44 1.6 6.4 0.00 0.00 0.00 53 1007.6
20260509184600 18 164 1.6 12.9 0.00 0.00 0.00 52 1007.7
20260509183057 17 117 0.0 6.4 0.00 0.00 0.00 56 1007.9
20260509181607 17 106 4.8 9.7 0.00 0.00 0.00 56 1007.9
20260509180051 17 110 0.0 1.6 0.00 0.00 0.00 57 1008.3
20260509174552 17 152 0.0 12.9 0.00 0.00 0.00 56 1008.3
20260509173047 17 95 1.6 6.4 0.00 0.00 0.00 59 1008.4
20260509171545 16 155 0.0 4.8 0.00 0.00 0.00 58 1008.7
20260509170041 16 192 0.0 4.8 0.00 0.00 0.00 59 1008.9
20260509164538 16 149 0.0 1.6 0.00 0.00 0.00 60 1008.9
20260509163048 15 95 0.0 9.7 0.00 0.00 0.00 63 1009.1
20260509161534 15 52 3.2 8.0 0.00 0.00 0.00 62 1009.3
20260509160033 15 25 1.6 6.4 0.00 0.00 0.00 64 1009.5
20260509154535 15 51 1.6 8.0 0.00 0.00 0.00 63 1009.6
20260509153032 15 320 3.2 9.7 0.00 0.00 0.00 64 1009.5
20260509151530 15 25 1.6 8.0 0.00 0.00 0.00 64 1009.3
20260509150027 15 35 4.8 12.9 0.00 0.00 0.00 64 1009.5
20260509144525 15 40 6.4 14.5 0.00 0.00 0.00 65 1009.5
20260509143028 14 43 4.8 16.1 0.00 0.00 0.00 66 1009.6
20260509141522 14 16 4.8 9.7 0.00 0.00 0.00 68 1009.6
20260509140016 13 32 0.0 6.4 0.00 0.00 0.00 69 1009.7
20260509134512 13 17 3.2 6.4 0.00 0.00 0.00 73 1009.9
20260509133009 12 23 1.6 3.2 0.00 0.00 0.00 79 1009.8
20260509131512 12 32 0.0 4.8 0.00 0.00 0.00 82 1009.8
20260509130013 12 293 3.2 6.4 0.00 0.00 0.00 84 1009.8
20260509124507 12 280 1.6 4.8 0.00 0.00 0.00 82 1009.6
20260509123006 11 8 1.6 3.2 0.00 0.00 0.00 81 1009.8
20260509121509 11 43 0.0 1.6 0.00 0.00 0.00 78 1009.8
20260509120013 11 43 0.0 0.0 0.00 0.00 0.00 80 1009.9
20260509114504 11 43 0.0 0.0 0.00 0.00 0.00 80 1009.9
20260509113002 11 43 0.0 6.4 0.00 0.00 0.00 76 1009.8
20260509111503 11 293 0.0 1.6 0.00 0.00 0.00 75 1009.7
20260509104604 11 272 3.2 4.8 0.00 0.00 0.00 71 1009.4
20260509103059 11 295 0.0 4.8 0.00 0.00 0.00 69 1009.4
20260509101559 11 299 0.0 1.6 0.00 0.00 0.00 70 1009.4
20260509100109 11 299 0.0 8.0 0.00 0.00 0.00 67 1009.3
20260509094557 11 290 1.6 3.2 0.00 0.00 0.00 70 1009.2
20260509093055 11 246 0.0 3.2 0.00 0.00 0.00 71 1009.4
20260509091555 11 246 0.0 1.6 0.00 0.00 0.00 70 1009.4
20260509090052 11 287 0.0 3.2 0.00 0.00 0.00 71 1009.4
20260509084557 11 287 0.0 1.6 0.00 0.00 0.00 71 1009.6
20260509083050 11 287 1.6 4.8 0.00 0.00 0.00 72 1009.7
20260509081550 11 197 0.0 4.8 0.00 0.00 0.00 73 1009.6
20260509080113 11 341 0.0 1.6 0.00 0.00 0.00 75 1009.7
20260509074549 11 301 0.0 3.2 0.00 0.00 0.00 71 1009.7
20260509073140 11 226 0.0 1.6 0.00 0.00 0.00 73 1009.7
20260509071549 11 226 0.0 1.6 0.00 0.00 0.00 71 1009.9
20260509070045 11 226 0.0 1.6 0.00 0.00 0.00 72 1009.7
20260509064548 11 226 0.0 3.2 0.00 0.00 0.00 72 1009.9
20260509063043 11 228 0.0 3.2 0.00 0.00 0.00 73 1010.0
20260509061550 11 265 0.0 3.2 0.00 0.00 0.00 71 1010.1
20260509060040 11 253 0.0 4.8 0.00 0.00 0.00 70 1010.2
20260509054538 11 216 1.6 4.8 0.00 0.00 0.00 71 1010.3
20260509053036 11 272 0.0 3.2 0.00 0.00 0.00 72 1010.4
20260509051538 11 287 3.2 6.4 0.00 0.00 0.00 72 1010.4
20260509050038 11 258 1.6 4.8 0.00 0.00 0.00 73 1010.5
20260509044531 12 340 0.0 3.2 0.00 0.00 0.00 70 1010.4
20260509043041 12 272 1.6 4.8 0.00 0.00 0.00 68 1010.4
20260509041527 12 71 1.6 4.8 0.00 0.00 0.00 67 1010.4
20260509040023 12 241 0.0 1.6 0.00 0.00 0.00 66 1010.4
20260509034524 12 240 0.0 3.2 0.00 0.00 0.00 64 1010.4
20260509033024 12 244 1.6 3.2 0.00 0.00 0.00 65 1010.5
20260509031522 12 234 1.6 4.8 0.00 0.00 0.00 64 1010.4
20260509030030 12 191 1.6 4.8 0.00 0.00 0.00 65 1010.6
20260509024522 12 245 0.0 0.0 0.00 0.00 0.00 66 1010.5
20260509023025 13 245 0.0 4.8 0.00 0.00 0.00 63 1010.5
20260509021523 13 259 0.0 3.2 0.00 0.00 0.00 64 1010.5
20260509020019 13 259 1.6 4.8 0.00 0.00 0.00 60 1010.5
20260509014519 13 272 1.6 6.4 0.00 0.00 0.00 60 1010.4
20260509013040 13 236 1.6 4.8 0.00 0.00 0.00 61 1010.2
20260509011519 13 209 1.6 6.4 0.00 0.00 0.00 57 1010.2
20260509010002 13 141 0.0 3.2 0.00 0.00 0.00 59 1010.0
20260509004507 14 280 0.0 1.6 0.00 0.00 0.00 57 1010.1
20260509003001 15 286 1.6 3.2 0.00 0.00 0.00 54 1010.1
20260509001501 15 286 0.0 6.4 0.00 0.00 0.00 51 1010.1